CAPE
4220 4428 4174 3914 3933 3993 3984 4064 4002 3995 3566 3751 3498 3451 3555 3459 3154 3310 3324 3288 3384 3622 3824 3770 3862 4370 4304 4323 3775 3823 4135 3976 3736 3967 4132 4053 3582 3285 3140 3743 3778 3535 3249 2663 2227 1979 2064 1998 1730 1631 1354 1119 1180 1156 879 832 848 678 627 733 584 616 618 586 582 454 707 224 82 140 132 302 440 165 196 265 910 674 458 466 1229 769 506 492 738
4238 4524 4309 3888 3744 4026 3925 3958 4060 4283 4005 3784 3638 3559 3715 3758 3457 3426 3382 3568 3504 3480 3999 3915 3932 4127 4330 4492 4236 3812 4194 4177 3855 3872 4210 4342 3897 3261 3091 3617 3792 3653 3188 2972 2552 2099 2053 2040 1904 1630 1571 1236 1216 1156 944 871 984 692 734 665 660 726 674 722 526 594 538 605 361 253 190 247 280 598 334 306 407 929 970 544 351 532 643 466 285
3944 4471 4408 4099 4023 3970 4002 4023 4352 4242 3886 3813 3553 3448 3620 3874 3914 3605 3439 3508 3809 3749 3899 4128 4245 4169 4257 4372 4558 4075 4313 4450 4193 4068 4242 4315 4013 3376 3134 3234 3447 3158 2832 2697 2536 2337 2126 2108 1940 1843 1705 1409 1184 1107 925 920 1080 939 664 711 798 626 722 689 770 647 591 684 694 602 312 375 255 386 483 506 625 661 903 1032 608 527 553 475 237
3862 4398 4536 4157 4195 4162 4302 4132 4154 4117 3784 3649 3479 3415 3173 3649 3928 3986 3674 3289 3536 3959 3872 4196 4457 4507 4299 4191 4439 4551 4231 4418 4552 4220 4146 4240 4176 3881 3555 3317 3299 3094 2790 2710 2655 2535 2310 2251 2071 1973 1882 1709 1305 1226 1010 954 1141 1203 900 845 928 883 831 748 830 982 744 544 680 666 641 352 450 193 421 495 438 630 704 808 772 508 406 372 335
3810 4337 4425 3857 3953 4217 4245 3992 4195 4139 3700 3334 3212 3059 2838 2847 3612 3884 3736 3254 2973 3771 4111 4155 4556 4801 4503 4336 4367 4580 4506 4628 4686 4222 4080 4264 4304 4160 3694 3530 3457 3358 3081 3010 2802 2726 2486 2352 2333 2224 2045 1912 1661 1323 1142 1140 1113 1198 1178 1020 977 985 820 964 995 877 943 894 837 906 764 608 612 509 361 613 680 642 710 726 563 545 509 343 252
3662 4191 4257 3822 4041 4346 4407 4003 3854 3840 3439 3143 2851 2631 2465 2536 2916 3692 3754 3515 3187 2895 4087 4250 4302 4754 4834 4616 4532 4813 4799 4614 4668 4527 4077 4144 4404 4261 3954 3576 3366 3463 3369 3086 3033 2753 2560 2560 2642 2580 2186 2005 1952 1680 1444 1240 1264 1238 1303 1272 1161 1125 1056 1037 1336 1198 871 956 834 865 811 649 703 780 630 547 706 597 616 714 712 586 617 600 376
4215 4301 4395 3890 4132 4345 4264 4007 3715 3525 3574 3081 2766 2537 2448 2385 2460 3016 3687 3709 3460 3051 3140 4314 4328 4654 5003 4780 4682 4812 4933 4973 5073 4890 4400 4208 4399 4473 4276 3873 3603 3483 3306 3028 2968 2879 2788 2805 2823 2795 2350 2140 2137 2061 1757 1358 1242 1357 1388 1444 1282 1332 1211 1172 1301 1464 1347 936 810 768 871 744 789 763 674 708 656 643 670 692 770 815 1045 775 924
4590 4600 4494 4308 4343 4334 4224 4102 3875 3802 3730 4070 3333 2768 2586 2609 2662 2694 3412 3843 3583 3259 2969 3620 4432 4482 4828 5057 4882 4959 5258 5073 5032 5088 4818 4317 4404 4616 4453 3910 3700 3641 3423 3241 3025 2947 3000 2982 2861 2820 2516 2307 2218 2280 2156 1638 1382 1387 1479 1511 1456 1433 1414 1283 1259 1444 1494 1194 906 817 888 1060 906 779 780 811 871 826 616 598 776 880 1042 1666 1109
4472 4252 4690 4741 4674 4694 4736 4376 4365 4061 3966 4265 3793 3161 2960 3096 3167 3055 3368 3694 3744 3557 3346 3004 4105 4589 4720 5100 5004 4976 5158 5251 5274 5023 5016 4758 4504 4572 4464 4228 3949 3811 3700 3456 3334 3146 3168 3173 3056 2821 2809 2432 2138 2233 1994 1709 1605 1569 1747 1700 1659 1542 1522 1343 1373 1547 1472 1276 1211 1119 1079 988 963 1052 862 818 913 948 884 608 597 630 620 1132 2051
4377 4428 4662 4840 4815 4986 5153 4956 4774 4811 4246 4305 4840 4098 3297 3329 3147 3153 3422 3570 3948 4032 3909 3599 3441 4368 4714 4967 5117 5098 5118 5269 4960 4650 4699 4968 4755 4368 4440 4431 4326 4052 4053 3928 3632 3431 3203 3168 3169 2515 2247 2222 2092 2005 1975 1642 1417 1441 1809 1904 1866 1662 1565 1570 1566 1603 1519 1464 1255 1147 1026 952 977 1091 1096 987 1168 1189 1020 912 774 640 454 474 1532
3940 4085 4460 4796 4979 5218 5292 5227 5122 5143 5001 4921 5126 4900 4278 3887 4147 4426 4197 3942 4302 4837 4275 3755 3505 3624 4474 4799 5085 5174 5084 5076 4724 4581 4525 4608 4688 4606 4558 4700 4568 4428 4203 4242 3995 3592 3470 3240 3206 3172 2313 2137 2142 2062 1996 1814 1463 1324 1396 1658 1790 1779 1605 1556 1595 1600 1550 1509 1327 1141 1108 1090 968 956 939 950 993 1173 1093 808 750 794 738 711 1051
3700 4230 4306 4838 5136 5259 5233 5321 5296 5241 5228 5247 5325 5263 4748 4434 4521 4500 4208 4202 4766 4034 4197 4223 4388 3783 4054 4623 4875 5033 5190 4817 4511 4409 4346 4331 4384 4842 4486 4486 4553 4421 4322 4038 4011 3748 3470 3344 3231 3157 3017 2847 2734 2228 2000 1877 1644 1380 1275 1422 1556 1501 1288 1608 1680 1550 1598 1495 1316 1181 1068 1017 1070 993 741 638 884 927 982 733 966 900 1151 1066 891
3723 4396 4351 4773 5095 5224 5221 5312 5384 5310 5241 5215 5296 5365 5142 4928 4539 4533 4424 4547 4444 4745 4874 4413 4471 4303 4044 4590 4675 4802 5027 4712 4427 4289 4117 4027 4022 4009 4383 4598 4516 4434 4338 4147 3911 3975 3740 3430 3380 3270 3275 2536 2563 2861 2715 2087 1752 1529 1307 1306 1390 1358 1137 927 1173 1872 1537 1600 1401 1312 1168 1082 989 1065 856 786 954 698 757 514 837 1255 1524 1448 1383
3504 4148 4560 4769 5049 5250 5346 5428 5479 5476 5434 5352 5249 5275 5316 5160 4629 4427 4562 4549 4642 4886 4565 4766 4839 4839 4494 4571 4787 4679 4916 4545 4356 4101 3948 3778 3694 3562 4076 4405 4529 4499 4416 4304 4065 3984 4049 3760 3505 3495 3448 3392 2998 2891 3082 2686 1931 1727 1524 1354 1563 1354 1035 937 845 972 1326 1515 1512 1440 1399 1256 1423 1272 1337 1261 946 851 772 623 813 877 862 1172 1095
3825 4373 4576 4767 5045 5250 5454 5380 5426 5452 5490 5484 5272 5297 5349 5287 4983 4454 4414 4641 4758 4957 4845 4911 4908 4942 4714 4320 4244 4376 4573 4261 4285 4040 3726 3560 3430 3274 3837 3987 4319 4476 4482 4373 4346 4098 4107 4026 3756 3591 3631 3594 3094 2903 3158 3010 2441 1863 1640 1505 1375 1444 1411 1133 968 890 1050 1186 1307 1416 1428 1285 1440 1260 1129 1269 906 1192 974 1235 979 917 1297 1449 1794
3657 4157 4737 4705 4995 5227 5362 5374 5363 5414 5484 5499 5355 5271 5309 5404 5340 4892 4518 4422 4614 4877 5016 4775 4748 4748 4914 4662 4134 4202 4156 3762 3983 4052 3792 3392 3225 3136 3523 3845 3843 4161 4410 4458 4411 4397 4280 4212 4138 3790 3723 3725 3134 2513 2678 3106 2770 2209 1888 1740 1622 1396 1332 1144 1032 719 570 732 1030 1124 1087 989 647 1197 1018 782 1098 1088 945 690 913 1668 1890 1757 1162
3493 4093 4714 4890 5042 5248 5226 5174 5216 5269 5374 5340 5240 5158 5150 5336 5314 5025 4612 4423 4463 4711 4885 4826 4924 4877 4866 4859 4653 4438 4321 4336 3685 3763 3845 3640 3217 3014 3382 3604 3710 3752 4008 4313 4269 4294 4265 4310 4263 3965 3835 3689 3337 2794 2263 2520 3038 2563 2196 1902 1720 1592 1411 1300 1142 988 830 808 797 782 766 770 728 592 620 494 1117 1092 978 850 1212 1509 1206 1135 777
3356 3960 4814 5023 5042 5163 5152 5041 5026 5107 5326 5345 5207 5085 5063 5159 5188 5166 4792 4471 4140 4290 4663 4814 4925 4836 4678 4733 4661 4937 4635 4840 3761 3650 3612 3620 3413 3119 3392 3595 3619 3650 3692 3942 4136 3782 3536 3616 3977 4067 3897 3620 3096 2968 2682 2226 3019 2908 2535 2207 1985 1774 1667 1500 1189 1182 1096 1050 1035 997 974 920 845 652 508 492 710 715 965 755 719 534 558 639 562
3581 3852 4530 4928 4919 4931 4950 4948 5061 5174 5277 5257 5027 5094 5039 5031 5074 5003 4879 4666 4370 4240 4082 4400 4794 4965 4818 4652 4426 4530 4720 4501 4148 3945 3669 3506 3395 3242 3465 3533 3568 3652 3617 3705 3901 3754 3740 3360 3351 3551 3613 3333 3078 2950 2843 2524 2840 3076 2831 2480 2241 2036 1852 1652 1517 1124 1035 1004 1112 1103 1093 1026 914 886 1178 480 389 514 756 839 722 416 408 397 371
3767 3850 4376 4792 4893 4771 4795 5153 5153 4933 5048 5146 4992 5006 5060 5005 4989 4942 4915 4647 4585 4340 4034 4088 4387 4609 4790 4451 4730 4649 4538 5057 4198 4240 4000 3663 3394 3242 3655 3646 3586 3566 3644 3617 3647 3789 3740 3725 3057 2967 2879 2804 2809 2878 2820 2712 2589 3067 3033 2605 2385 2272 1930 2004 1896 1576 1365 1198 1090 948 884 902 890 937 1308 492 479 461 386 571 713 485 498 541 430
4097 4320 4412 4598 4749 4861 4776 4944 4954 4770 4788 4843 4783 4687 4774 4694 4596 4753 4728 4619 4638 4611 4495 4238 4039 4314 4411 4709 4802 4753 4651 4518 3921 3952 3820 3700 3509 3317 3540 3712 3675 3601 3472 3238 3398 3195 3638 3441 3386 2966 2680 2512 2624 2712 2691 2678 2489 2844 3050 2796 2576 2366 2120 1976 2070 1635 1622 1317 1207 1056 958 846 810 706 819 644 600 564 505 419 616 493 450 430 293
4217 4332 4492 4490 4457 4662 4650 4860 4997 4652 4727 4897 4925 4706 4665 4624 4560 4698 4574 4770 4805 4703 4740 4640 4440 4261 4231 4281 4474 4521 4274 4094 4933 3564 3482 3544 3585 3534 3358 3576 3654 3564 3133 3405 2962 3119 3355 3578 3681 3230 2838 2550 2311 2475 2636 2629 2587 2304 2882 2550 2291 1983 1849 2184 2085 2032 1616 1243 1204 1089 947 855 793 783 734 724 767 692 554 411 534 396 261 191 230
4323 4426 4583 4708 4652 4620 4688 4690 4725 4688 4645 4709 4894 4814 4803 4631 4673 4796 4850 4761 4800 4795 4881 4652 4290 3954 4011 4118 4401 4467 4633 4992 3461 3505 3515 3454 3420 3366 3378 3347 3128 3231 3282 2981 3112 3132 3316 3543 3392 3040 2650 2345 2247 2168 2269 2453 2498 2413 2176 2228 2123 1866 1624 2023 1898 1977 1750 1226 1164 1172 933 746 731 863 957 919 876 818 645 355 567 395 218 127 145
4605 4594 4605 4646 4542 4315 4384 4463 4736 4688 4662 4793 4909 5119 5085 4891 4858 4965 5064 4917 4817 4833 4888 4661 4599 4331 4244 3965 3889 3585 4752 4478 4459 3810 3551 3412 3368 3343 3325 3296 3221 3151 3382 3326 3199 3231 3355 3528 3319 2809 2632 2402 2254 2125 1975 2024 2195 2285 2169 1941 1935 1763 1630 1810 2040 2157 1443 1225 1136 1050 910 817 877 1014 981 1037 900 614 569 505 290 183 151 181 164
4857 4834 4786 4687 4612 4342 4331 4550 4759 4684 4746 4870 4938 5106 5304 5185 5067 5062 5121 4872 4760 4563 4423 4236 4387 4472 4322 4244 4391 4642 4293 4522 4039 3914 3770 3624 3587 3424 3334 3354 3272 3162 3082 3144 3068 2854 2843 3068 2740 2727 2657 2549 2414 2165 2038 1858 1872 2051 2077 1797 1622 1592 1477 1686 1943 1745 1375 1308 1262 1203 1138 1050 1089 1075 956 1043 744 706 411 166 95 130 44 182 138
5201 5108 4920 4807 4676 4431 4458 4519 4713 4731 4889 4863 5001 4989 4954 4820 4727 4833 4672 4458 4212 4231 4365 4203 4172 4221 4299 4380 4298 4291 4792 4386 4719 4152 3792 3841 3769 3637 3528 3434 3336 3130 3123 3125 3070 2944 2878 2689 2747 2765 2742 2666 2653 2580 2288 2044 1913 1843 1812 1672 1509 1413 1384 1474 1543 1361 1390 1429 1358 1329 1308 1223 1237 1140 1020 794 672 444 236 232 173 110 84 87 175
4888 4948 4887 4752 4777 4506 4451 4455 4808 4776 4875 4270 4294 4394 4475 4339 4163 4566 4529 4361 4310 4341 4269 4137 4255 4029 4205 4258 4118 4696 4426 4429 4503 4522 4121 4091 4044 3923 3773 3708 3585 3474 3336 3233 3152 3038 3016 2911 2856 2704 2784 2768 2730 2741 2736 2395 2184 1988 1668 1581 1490 1370 1317 1351 1341 1346 1377 1404 1409 1391 1382 1334 1204 1004 1032 701 540 319 148 258 59 45 70 46 32
4555 4614 4678 4570 4550 4602 4458 4252 4416 4530 4572 4320 4192 3882 3705 3585 3899 4346 4196 4022 4180 4302 4281 4356 4067 3986 4069 4258 4097 4380 4490 4258 4551 3798 3748 3681 3686 3688 3684 3698 3720 3644 3574 3531 3432 3257 3124 3125 3048 2973 2914 2799 2623 2636 2605 2511 2355 2079 1654 1462 1439 1313 1284 1308 1286 1269 1310 1359 1399 1417 1342 1094 909 632 697 916 511 118 83 91 77 87 5 14 10
4963 4946 4750 4795 4693 4558 4550 4412 4617 4518 4168 4316 5093 5106 4908 4023 5031 4397 4268 4349 4597 5460 5944 5880 5227 5012 4553 4580 4782 4860 4802 4819 4455 3691 3700 3908 3850 3805 3742 3772 3704 3614 3596 3525 3504 3421 3253 3239 3120 3125 3036 2957 2812 2609 2525 2454 2374 2119 1890 1432 1198 1132 1164 1234 1320 1318 1350 1411 1449 1417 1214 984 643 534 407 469 280 110 231 272 258 132 6 10 0
5191 5068 4966 4974 4652 4648 4541 4289 4359 4073 3632 4660 4102 3917 3966 4515 4665 4667 4200 4153 4151 4107 4015 4045 4058 4055 3921 3759 3618 3529 3443 3220 3096 3048 3059 3156 3325 3407 3364 3433 3403 3550 3617 3573 3473 3512 3548 3539 3362 3209 3140 2946 2800 2627 2429 2295 2234 2136 2003 1756 1330 968 991 1114 1255 1328 1362 1433 1356 1260 935 459 240 268 243 73 32 47 116 89 95 59 13 0 1
4511 4626 4599 4436 4486 4527 4562 4503 4914 4892 4951 4787 4779 3855 3402 3504 3617 3813 3865 3656 3552 3492 3488 3387 3287 3234 3152 3056 2755 2219 1384 853 372 0 0 0 0 0 0 0 265 597 1024 1710 2729 3086 3268 3303 3251 3180 3109 3074 2897 2722 2550 2215 2196 2139 2008 1794 1420 1092 824 1021 1211 1321 1397 1368 1289 1027 444 184 166 220 295 261 110 25 82 1 6 1 6 1 0
3318 3435 3079 3068 2975 3371 3630 3646 3587 3864 3437 3597 3091 3110 3149 3266 3239 3233 3234 3179 3088 2891 2677 2245 1125 327 0 0 0 0 0 0 0 0 0 0 0 0 0 0 0 0 0 0 331 1032 1634 2142 2664 2970 3054 3108 3046 2868 2701 2426 2010 1937 1888 1776 1476 1090 945 1001 1152 1303 1368 1418 1418 699 159 122 76 60 112 150 31 1 0 0 0 1 9 2 0
2432 2370 2339 2071 2005 1744 1854 1929 2027 1973 1845 1813 1680 1501 1138 745 686 693 1352 36 92 0 0 0 0 0 0 0 0 0 0 0 0 0 0 0 0 0 0 0 0 0 0 2 3 3 313 806 1212 1744 2388 2719 2742 2683 2626 1970 1520 1516 1549 1671 1368 915 947 1032 1107 1224 1381 1329 266 86 27 26 6 43 80 51 27 6 2 0 0 6 8 7 2
1903 1919 1687 1875 1840 1834 1941 2202 2266 2151 1841 1545 1552 1570 1446 1336 1347 1210 1221 2004 1630 880 0 0 0 0 0 0 0 0 0 0 0 0 0 0 0 0 0 0 0 0 0 1 3 4 17 339 782 1048 1370 1898 2346 2556 2013 1759 1347 1260 1171 1257 1519 1152 887 1020 1130 1064 967 708 144 39 58 133 101 88 114 70 36 35 20 10 6 22 2 0 0
1306 1259 1274 1056 1057 1040 1253 1642 1832 1877 1655 1401 1113 870 823 1101 881 606 746 774 896 966 1367 1210 424 161 463 56 0 0 0 0 0 0 0 0 0 0 0 0 0 0 0 2 2 3 6 12 282 735 855 1056 1403 1800 1628 1233 1446 1042 1135 1019 1144 1110 857 878 841 917 687 484 24 39 169 15 55 8 21 19 35 37 23 13 4 3 9 3 0
580 605 671 686 731 891 1104 1404 1652 1635 1326 901 803 751 900 1143 1255 1045 664 706 764 1016 985 1200 1047 825 532 268 0 0 0 0 0 0 0 0 0 0 0 0 0 0 0 1 0 0 5 7 19 149 508 605 698 1080 1169 878 1186 1176 939 908 948 939 865 800 778 736 253 72 193 210 162 18 0 0 1 15 25 39 36 24 13 3 2 6 6
1018 1092 1172 1114 811 825 619 570 882 1142 780 952 1120 1141 961 594 589 713 650 747 370 762 1075 1123 719 1192 1264 478 70 0 0 0 0 0 0 0 0 0 0 0 0 0 0 0 0 2 0 6 21 52 158 256 350 622 555 357 404 616 591 657 830 743 726 801 428 135 0 90 28 36 10 2 10 0 4 17 39 36 27 23 9 1 1 6 2
1160 1331 1718 1350 1280 1225 1191 1083 1111 1063 1333 872 856 944 838 961 786 720 689 690 549 570 620 608 384 424 452 364 63 27 0 33 20 1 35 105 290 305 160 94 17 6 43 39 0 0 4 6 22 31 17 40 49 247 180 150 234 416 501 442 677 708 769 596 472 117 37 34 24 1 12 22 1 4 20 34 29 9 9 4 1 11 7 3 2
1236 1012 1052 1097 1031 1184 1112 1005 1049 1058 1020 995 832 704 500 659 812 722 701 735 611 496 364 464 404 321 214 62 14 0 83 194 137 144 47 86 138 194 149 122 178 213 214 142 39 14 30 48 54 21 2 0 0 0 10 66 210 341 252 339 477 610 592 590 95 66 56 80 25 23 22 11 5 6 15 15 6 8 6 4 4 12 6 0 0
892 1149 911 815 839 810 794 793 839 753 691 712 561 573 567 550 528 476 595 550 564 408 375 292 278 175 152 9 0 0 14 132 147 81 80 119 87 108 104 106 135 218 300 169 120 73 14 2 1 1 3 2 6 34 104 176 417 592 553 501 657 643 401 23 18 93 65 40 20 13 19 12 0 4 8 10 13 28 23 18 3 2 6 3 0
683 599 672 685 726 591 645 720 632 672 717 525 528 558 460 426 392 475 424 311 299 280 230 174 113 116 83 0 0 0 0 129 133 93 61 67 57 48 54 108 62 107 154 223 180 161 140 13 0 0 0 4 0 2 31 128 282 63 13 43 91 98 58 15 25 34 10 14 12 8 12 6 0 1 8 10 37 22 9 1 8 12 0 0 0
909 780 441 638 763 215 454 420 400 507 355 375 493 318 436 274 365 320 242 208 165 129 100 78 61 102 73 0 0 0 0 114 66 51 56 58 56 40 48 87 98 85 79 64 77 67 26 0 0 0 0 0 0 0 4 33 30 21 6 6 4 9 12 12 11 15 12 9 8 14 19 16 18 29 42 36 24 20 6 11 0 0 0 0 0
227 419 601 554 408 488 495 464 548 351 496 450 458 327 262 228 257 157 156 106 190 117 58 49 120 174 324 10 2 0 98 158 91 28 25 18 29 39 26 11 2 0 6 14 39 80 29 0 0 0 0 0 0 0 0 9 11 4 0 0 0 0 0 3 7 12 21 22 27 23 33 27 29 39 46 26 18 7 1 0 0 0 0 0 0
32 38 31 58 270 461 408 430 224 418 176 466 510 314 194 126 127 245 165 30 50 59 125 158 138 121 110 302 71 323 162 105 45 13 3 2 5 12 16 2 0 11 121 12 13 17 14 0 0 0 0 0 0 0 0 0 2 13 5 31 27 6 15 1 10 27 21 25 32 39 41 32 41 40 13 7 3 2 0 0 0 0 0 0 0
19 19 12 17 34 89 192 384 299 390 239 355 416 445 393 269 300 283 147 128 72 62 39 23 31 38 40 60 68 61 60 82 29 24 3 3 6 2 6 4 3 131 164 155 113 95 101 44 0 0 8 7 2 0 2 10 18 2 11 30 42 27 13 0 1 4 5 13 25 25 6 0 1 34 32 29 1 0 0 0 0 0 0 0 0
15 30 24 20 36 60 89 131 110 102 145 125 129 152 183 199 227 201 130 114 101 68 54 32 23 47 100 27 29 25 27 21 47 26 8 4 0 3 2 3 1 3 58 119 137 108 95 108 23 41 43 37 39 14 0 8 0 0 0 4 1 0 0 0 0 8 12 15 5 1 0 2 12 25 0 0 0 0 0 0 0 0 0 0 0
1 4 9 18 18 37 42 36 36 55 74 40 38 24 14 30 33 27 26 19 24 32 59 101 130 66 42 63 36 34 21 24 97 28 28 11 6 4 0 3 15 18 14 14 17 18 78 87 43 19 46 41 54 41 4 0 0 0 0 0 0 0 0 7 12 24 16 0 0 0 0 42 22 32 0 0 0 0 0 0 0 0 0 0 0
3 0 2 2 5 6 5 3 3 2 2 4 3 2 3 3 5 4 5 5 5 6 8 8 15 16 16 32 34 30 61 31 79 54 18 4 5 0 3 4 3 4 7 0 4 46 38 31 23 22 19 23 53 54 27 21 9 0 0 0 0 0 2 3 0 0 0 40 1 20 26 46 14 0 0 0 0 0 0 0 0 0 0 0 0
0 0 2 5 7 4 4 3 2 3 2 2 2 2 2 3 2 1 1 2 4 4 5 5 4 2 3 7 12 40 64 46 37 70 19 18 6 1 1 2 2 0 0 0 0 0 0 8 11 9 1 8 25 23 26 26 0 7 6 6 7 18 11 12 6 0 0 0 0 0 0 0 0 0 0 0 0 0 0 0 0 0 0 0 0
0 0 0 1 3 4 3 2 0 0 0 0 1 1 2 2 1 2 2 2 1 2 2 4 6 4 4 13 2 7 26 17 64 189 207 217 72 14 3 1 0 0 0 0 0 0 0 3 9 17 0 3 8 0 0 5 3 0 0 0 0 0 0 0 0 0 0 0 0 0 0 0 0 0 0 0 0 0 0 0 0 0 0 0 0
0 0 0 0 0 0 0 0 0 0 2 2 0 1 1 2 2 2 2 2 2 2 2 2 2 3 5 6 8 6 23 20 0 18 33 21 115 84 113 78 21 1 0 0 0 0 0 0 0 0 0 0 0 0 0 0 0 0 0 0 0 0 0 0 0 0 0 0 0 0 0 0 0 0 0 0 0 0 0 0 0 0 0 0 0
Wind_Speed
16 15 16 15 16 16 16 15 15 14 14 14 14 13 13 13 13 13 14 12 12 12 12 11 12 13 14 14 15 17 19 20 21 22 21 18 16 14 14 15 13 12 10 8 8 10 13 15 15 15 14 14 13 13 14 16 16 14 13 14 14 15 15 14 13 13 16 18 nan 20 24 27 27 26 25 27 30 30 28 27 30 29 29 28 32
15 16 16 15 15 16 17 16 16 16 16 15 14 14 14 14 14 14 13 14 14 13 14 13 13 14 14 15 15 17 20 21 22 22 22 20 18 15 14 15 15 13 12 9 8 8 11 14 14 15 16 15 15 16 17 19 20 18 16 15 15 16 16 17 16 15 15 19 19 18 18 26 25 30 27 28 29 32 31 31 30 30 29 30 29
17 18 17 17 16 17 17 18 18 18 18 17 16 16 15 15 15 15 14 15 16 15 15 15 15 15 15 16 16 17 20 22 22 22 22 22 20 17 15 15 16 14 13 12 10 9 10 12 14 15 15 17 17 18 19 21 21 20 18 16 16 17 19 19 19 18 16 17 21 22 22 25 26 29 30 29 28 30 31 31 31 32 32 31 31
20 20 20 19 19 19 18 18 19 19 18 17 17 17 17 16 17 16 16 16 16 17 16 17 17 17 16 16 17 18 20 22 23 22 22 22 21 18 16 15 15 15 15 14 13 12 12 12 14 16 17 18 19 19 20 21 20 18 17 15 14 15 16 19 18 17 17 17 20 21 25 25 27 25 29 30 30 31 31 31 31 31 32 34 33
22 22 21 22 22 21 21 20 19 19 18 17 18 18 17 17 17 17 17 17 16 18 18 17 17 18 18 18 18 18 19 21 23 23 23 22 21 19 17 16 16 16 16 15 15 15 14 13 14 16 18 19 20 20 21 22 18 16 15 15 14 13 14 17 19 19 19 20 21 24 23 26 26 26 27 30 31 31 32 30 31 32 32 31 33
23 23 23 23 23 23 23 21 19 19 19 17 18 18 18 17 17 18 18 18 18 17 19 19 18 18 19 20 19 19 20 21 23 24 24 23 22 19 17 16 16 16 17 16 16 16 15 15 15 16 18 20 21 21 20 20 18 16 16 15 15 15 16 18 20 23 23 23 24 24 27 25 27 26 29 29 31 32 32 32 31 31 33 33 33
22 24 25 24 22 22 22 20 19 18 18 17 17 18 18 18 18 18 20 19 19 18 18 19 19 19 20 21 21 20 21 22 23 24 24 23 22 20 18 16 16 16 17 17 17 17 17 16 15 16 18 20 22 22 21 19 17 17 17 16 16 17 19 20 22 25 26 26 26 25 26 28 27 28 30 31 31 32 33 33 33 33 33 34 34
21 23 24 24 21 20 19 19 18 18 18 18 18 18 19 19 19 19 20 20 19 18 17 19 20 20 20 21 21 22 22 22 23 24 24 22 21 20 18 16 15 16 17 17 18 18 18 18 17 17 18 20 22 22 21 19 18 17 17 17 17 18 19 21 23 25 26 26 27 28 28 28 31 28 30 32 32 32 33 34 34 34 34 34 34
20 20 21 21 20 19 18 17 16 17 18 18 18 18 18 19 19 19 19 18 17 16 16 17 19 20 20 20 21 22 22 22 22 22 22 21 20 19 18 16 14 15 16 17 18 18 18 18 17 17 19 20 24 23 22 21 19 19 18 18 19 20 21 22 23 25 26 26 27 28 29 30 29 31 31 34 36 35 36 35 34 34 34 34 34
19 19 18 18 19 19 19 18 17 17 18 17 18 18 18 19 19 19 17 17 16 16 15 16 16 18 19 19 20 20 20 20 19 21 20 20 20 17 17 15 14 14 16 17 18 19 18 17 18 19 21 23 25 25 24 24 23 20 20 20 21 21 22 23 24 26 27 27 28 30 31 31 32 32 33 34 35 36 36 38 36 36 35 35 35
19 18 15 15 18 19 19 18 18 18 18 17 18 19 19 18 18 18 16 16 15 16 15 14 13 14 16 16 16 16 16 14 18 20 21 21 20 19 18 17 15 15 16 17 18 19 18 18 17 22 23 25 25 27 25 25 26 24 23 23 22 24 25 25 25 26 28 28 29 29 31 32 33 33 34 34 36 38 38 38 38 38 37 37 37
19 16 15 16 17 18 19 19 19 19 18 17 18 19 19 18 17 17 16 15 14 13 12 10 9 9 10 11 11 11 10 12 19 21 22 23 22 20 19 18 18 17 17 17 18 19 20 19 19 19 22 25 26 27 26 27 27 27 27 26 26 25 24 26 27 28 29 30 30 31 31 33 34 35 36 36 38 39 40 39 40 39 39 39 38
21 19 18 18 17 18 20 21 20 20 19 18 18 19 19 18 16 16 15 14 13 11 8 7 6 4 4 6 7 8 7 13 19 22 23 25 25 23 20 20 20 19 19 19 20 21 22 22 22 21 21 28 28 28 28 27 27 29 29 29 27 27 26 24 25 27 30 31 31 32 33 34 36 37 39 38 39 39 42 41 41 42 41 39 38
23 23 22 21 20 19 20 21 22 21 21 21 20 19 18 16 15 15 13 13 11 8 6 5 4 2 2 2 4 5 7 13 19 22 23 25 25 24 20 20 20 20 20 22 23 24 25 26 26 25 24 29 30 29 30 31 30 29 28 27 26 26 27 28 28 28 27 31 34 34 34 35 35 38 41 42 41 41 43 43 43 43 43 41 39
25 25 24 24 23 22 21 22 22 23 23 23 21 19 18 17 15 14 13 12 10 8 6 5 4 3 3 2 1 3 4 13 19 22 23 25 25 23 20 19 19 19 20 22 23 25 25 26 28 28 28 28 31 32 32 33 33 33 31 29 26 26 27 28 31 32 33 33 34 36 36 36 36 38 40 43 43 43 44 45 44 43 43 45 44
25 25 24 23 22 22 22 22 22 23 23 23 21 18 18 18 17 16 14 12 11 10 8 7 5 5 4 4 3 2 2 14 18 22 25 27 29 24 22 21 20 19 20 21 23 25 25 26 27 29 30 29 32 37 35 35 35 36 35 33 29 26 26 29 32 35 35 36 37 38 38 38 38 40 42 44 46 46 47 47 46 47 48 49 46
26 25 23 20 19 20 21 22 22 22 22 22 20 18 18 19 18 18 16 14 14 13 12 11 11 9 7 8 7 6 6 17 21 22 24 29 31 28 27 26 25 24 23 23 23 25 28 29 30 31 32 31 35 39 39 40 37 37 37 37 35 31 28 30 36 38 38 38 38 38 38 37 39 42 47 50 50 49 49 49 51 51 51 49 48
29 26 22 19 18 19 21 21 20 21 22 22 20 19 20 21 20 21 19 18 16 16 17 17 16 14 13 12 12 12 10 21 27 26 26 31 34 32 32 31 29 29 29 29 30 29 29 32 34 34 34 34 40 45 44 43 39 40 40 41 40 35 32 33 36 39 42 44 42 42 43 44 49 50 54 57 57 54 51 50 51 52 51 51 49
31 27 22 20 18 19 21 21 19 20 21 22 22 22 22 22 23 23 22 21 20 21 21 20 19 18 16 15 17 17 16 22 33 32 33 35 34 33 35 35 34 33 34 34 35 35 35 37 40 40 40 38 47 49 49 46 42 43 43 42 42 39 38 40 39 43 45 46 46 48 49 51 52 51 52 58 60 57 52 50 51 52 52 53 52
32 28 25 22 20 20 21 21 19 18 19 22 24 23 24 24 24 24 23 23 23 23 23 21 20 20 19 19 21 21 20 24 35 35 37 39 41 37 37 38 36 36 37 38 39 39 38 37 43 45 45 44 52 53 52 50 46 45 45 43 42 41 44 44 44 44 49 47 48 52 51 52 53 53 55 55 56 57 55 52 52 52 53 55 55
34 31 28 24 22 21 22 22 21 19 19 21 23 23 24 24 24 24 24 25 25 25 24 24 23 23 22 23 23 24 25 24 35 39 38 40 42 41 39 38 36 37 36 38 39 38 38 38 37 45 45 46 52 54 56 53 50 49 48 46 45 47 51 47 49 50 53 50 50 54 54 54 54 53 54 57 56 57 56 54 53 54 56 57 56
35 32 29 25 23 22 23 23 22 21 20 21 23 23 24 25 25 25 25 26 26 27 28 28 27 27 27 25 24 24 27 30 33 40 40 41 43 42 39 38 39 39 39 39 38 35 36 39 38 45 49 45 47 51 53 54 54 52 51 50 52 57 54 51 52 55 56 53 53 55 56 55 53 54 55 58 57 57 57 56 56 56 57 58 56
35 31 29 26 24 24 24 25 24 23 23 23 24 25 26 26 27 27 27 28 28 29 30 30 29 27 27 27 27 27 28 30 33 41 42 44 44 43 40 40 43 45 40 39 40 39 41 39 40 48 54 50 50 52 52 52 52 51 52 54 56 61 60 56 55 57 58 57 56 55 56 56 54 54 56 57 58 57 57 56 58 58 57 57 55
33 31 28 26 25 24 25 25 25 25 26 27 27 28 28 29 29 29 30 31 31 32 32 31 28 25 24 24 25 25 29 29 35 44 44 43 43 43 41 38 42 44 43 39 40 42 44 44 45 55 59 56 54 53 53 54 51 51 53 56 59 62 60 59 57 60 62 62 60 58 57 56 56 57 59 56 54 59 61 58 57 59 58 56 56
33 30 29 27 27 26 26 26 26 27 29 30 31 30 31 32 32 32 32 32 32 31 30 29 27 26 25 25 26 30 30 32 31 43 47 46 45 45 43 42 40 42 44 43 43 42 44 44 44 54 62 61 59 56 55 55 53 53 56 59 62 62 61 61 61 61 61 63 63 63 61 59 59 61 62 59 59 63 62 58 nan 58 nan 58 55
32 31 30 28 28 28 28 28 28 29 31 32 32 32 32 32 33 34 33 33 32 31 30 30 30 30 30 29 30 33 36 36 37 40 50 48 48 48 49 48 47 48 47 45 45 45 44 42 45 56 62 61 61 59 58 56 55 57 61 63 64 63 62 61 62 61 60 63 64 63 62 62 63 64 63 65 66 64 63 57 56 59 nan nan 55
32 32 31 30 30 30 31 31 32 32 33 34 35 35 36 35 36 36 36 36 36 35 32 32 32 33 33 35 36 38 39 38 39 40 51 54 50 50 49 49 48 49 49 46 46 49 49 48 51 60 61 63 63 62 60 60 60 59 62 65 64 64 63 63 64 63 63 64 63 62 62 65 66 65 67 66 65 65 63 56 nan nan nan nan nan
32 33 33 33 33 33 32 34 34 36 36 37 38 38 39 39 39 40 39 38 37 35 34 34 36 37 38 40 41 43 41 42 40 46 53 55 51 51 53 54 54 56 53 50 51 52 53 53 56 65 66 67 64 64 63 65 65 66 66 66 65 63 63 65 67 65 65 66 67 66 66 64 64 66 66 65 65 65 nan nan nan nan nan nan nan
35 37 37 38 38 38 37 37 37 39 41 41 48 48 43 41 42 46 50 47 45 44 42 42 43 43 44 47 47 46 44 41 49 51 49 54 54 48 49 53 54 55 53 51 54 56 56 57 62 67 70 69 71 70 70 69 68 68 71 72 71 70 71 69 66 65 65 67 68 67 65 65 66 66 65 65 65 65 65 61 58 57 nan nan nan
41 42 43 43 43 42 42 41 41 41 43 48 50 49 52 58 54 51 50 53 58 58 57 53 52 51 52 52 54 52 48 48 47 47 48 45 47 51 48 44 44 49 50 52 55 56 58 58 62 66 67 71 71 74 75 75 74 71 69 70 71 72 75 75 73 72 70 70 70 68 66 67 68 65 64 nan nan nan 66 nan nan nan nan nan nan
43 44 44 45 47 47 46 46 48 51 52 50 49 51 53 54 56 60 58 56 59 62 64 64 63 61 57 54 54 57 54 52 50 nan nan nan nan nan nan nan 43 42 43 50 60 61 58 60 63 65 66 68 70 71 75 78 78 76 73 71 70 70 74 76 78 77 75 73 72 70 68 68 68 66 64 64 68 nan nan nan nan nan nan nan nan
45 47 47 47 47 47 49 49 49 51 51 51 50 49 52 54 55 53 57 60 61 64 65 66 65 64 nan nan nan nan nan nan nan nan nan nan nan nan nan nan nan nan nan nan 56 57 60 61 62 64 66 68 69 71 74 79 82 81 78 76 71 68 70 73 76 76 74 74 74 73 72 71 nan nan 62 63 nan nan nan nan nan nan nan nan nan
49 49 49 51 51 52 52 53 53 53 53 53 52 51 52 53 55 56 57 nan nan nan nan nan nan nan nan nan nan nan nan nan nan nan nan nan nan nan nan nan nan nan nan nan nan nan 58 61 61 61 65 68 70 71 76 82 83 81 81 79 74 70 70 73 75 73 74 75 74 nan nan nan nan nan nan nan nan nan nan nan nan nan nan nan nan
53 52 52 53 53 53 54 55 55 55 55 56 56 57 57 57 57 57 57 58 56 56 nan nan nan nan nan nan nan nan nan nan nan nan nan nan nan nan nan nan nan nan nan nan nan nan nan 56 60 64 67 69 72 76 82 84 80 79 81 81 77 74 73 74 73 74 75 74 71 nan nan 66 66 nan 65 nan nan nan nan nan nan nan nan nan nan
54 57 58 56 56 56 57 57 58 58 58 58 58 59 59 57 56 56 55 54 54 54 55 54 55 57 61 nan nan nan nan nan nan nan nan nan nan nan nan nan nan nan nan nan nan nan nan nan 59 61 62 66 75 83 83 80 78 80 82 82 80 76 72 68 66 68 71 70 nan nan 63 nan nan nan nan nan nan nan nan nan nan nan nan nan nan
53 54 55 57 57 58 58 58 58 58 58 58 56 56 54 53 53 53 53 54 54 55 56 59 59 62 61 62 nan nan nan nan nan nan nan nan nan nan nan nan nan nan nan nan nan nan nan nan nan 56 60 68 76 77 73 71 73 75 77 77 78 76 71 68 65 65 68 nan 65 61 58 nan nan nan nan nan nan nan nan nan nan nan nan nan nan
53 54 55 55 56 56 57 56 56 54 53 53 52 52 52 52 52 52 54 56 57 57 58 61 61 64 64 65 nan nan nan nan nan nan nan nan nan nan nan nan nan nan nan nan nan nan nan nan nan nan 62 70 74 74 74 70 68 69 68 69 69 66 62 63 62 61 nan nan nan nan nan nan nan nan nan nan nan nan nan nan nan nan nan nan nan
57 57 56 56 56 56 55 54 52 46 49 52 51 50 51 51 52 54 55 57 59 58 60 61 60 58 59 59 nan nan nan nan nan nan nan 58 56 54 51 nan nan nan nan nan nan nan nan nan nan nan nan nan nan 69 69 64 63 65 62 58 58 58 61 59 58 57 nan nan nan nan nan nan nan nan nan nan nan nan nan nan nan nan nan nan nan
59 59 58 62 60 57 56 56 55 54 54 54 53 52 53 54 56 57 58 58 59 59 58 57 57 57 58 nan nan nan nan 54 54 52 nan nan 54 51 48 47 48 49 49 48 nan nan nan nan nan nan nan nan nan nan nan nan 48 50 48 44 45 49 52 50 nan nan nan nan nan nan nan nan nan nan nan nan nan nan nan nan nan nan nan nan nan
60 59 56 49 55 57 57 57 56 56 55 55 55 56 58 58 59 58 58 57 58 57 56 57 57 59 60 nan nan nan nan 54 53 nan nan 52 nan 51 48 48 49 51 53 55 56 nan nan nan nan nan nan nan nan nan 28 32 29 23 24 34 41 41 40 nan nan nan nan nan nan nan nan nan nan nan nan nan nan nan nan nan nan nan nan nan nan
60 59 58 56 55 56 58 58 59 57 57 57 58 60 61 60 60 58 58 57 57 56 57 57 58 60 nan nan nan nan nan 52 54 nan nan nan nan nan nan 49 nan 51 53 53 52 51 55 nan nan nan nan nan nan nan nan 32 29 nan nan nan nan nan nan nan nan nan nan nan nan nan nan nan nan nan nan nan nan nan nan nan nan nan nan nan nan
60 60 60 60 56 60 62 61 61 60 58 61 62 61 60 59 59 58 56 55 55 55 nan nan nan 59 nan nan nan nan nan 50 nan nan nan nan nan nan nan nan nan nan nan nan nan nan nan nan nan nan nan nan nan nan nan nan nan nan nan nan nan nan nan nan nan nan nan nan nan nan nan nan nan nan nan nan nan nan nan nan nan nan nan nan nan
64 64 65 65 66 66 66 65 63 62 62 60 60 59 58 56 55 53 53 54 54 54 nan nan 56 57 56 nan nan nan nan 49 nan nan nan nan nan nan nan nan nan nan nan nan nan nan nan nan nan nan nan nan nan nan nan nan nan nan nan nan nan nan nan nan nan nan nan nan nan nan nan nan nan nan nan nan nan nan nan nan nan nan nan nan nan
nan nan nan nan 69 70 69 65 64 63 63 62 60 58 55 52 51 51 50 nan nan nan 52 52 52 51 50 50 nan 47 48 49 nan nan nan nan nan nan nan nan nan nan 47 nan nan nan nan nan nan nan nan nan nan nan nan nan nan nan nan nan nan nan nan nan nan nan nan nan nan nan nan nan nan nan nan nan nan nan nan nan nan nan nan nan nan
nan nan nan nan nan nan 69 66 63 62 61 60 60 58 56 55 56 54 52 51 nan nan nan nan nan nan nan nan nan nan nan nan nan nan nan nan nan nan nan nan nan 45 45 45 42 nan 39 nan nan nan nan nan nan nan nan nan nan nan nan nan nan nan nan nan nan nan nan nan nan nan nan nan nan nan nan nan nan nan nan nan nan nan nan nan nan
nan nan nan nan nan nan nan 65 62 61 61 60 59 58 57 57 58 57 54 50 49 nan nan nan nan nan 46 nan nan nan nan nan nan nan nan nan nan nan nan nan nan nan nan 42 43 40 nan 40 nan nan nan nan nan nan nan nan nan nan nan nan nan nan nan nan nan nan nan nan nan nan nan nan nan nan nan nan nan nan nan nan nan nan nan nan nan
nan nan nan nan nan nan nan nan nan nan nan nan nan nan nan nan nan nan nan nan nan nan nan 45 45 nan nan nan nan nan nan nan nan nan nan nan nan nan nan nan nan nan nan nan nan nan nan nan nan nan nan nan nan nan nan nan nan nan nan nan nan nan nan nan nan nan nan nan nan nan nan nan nan nan nan nan nan nan nan nan nan nan nan nan nan
nan nan nan nan nan nan nan nan nan nan nan nan nan nan nan nan nan nan nan nan nan nan nan nan nan nan nan nan nan nan nan nan nan nan nan nan nan nan nan nan nan nan nan nan nan nan nan nan nan nan nan nan nan nan nan nan nan nan nan nan nan nan nan nan nan nan nan nan nan nan nan nan nan nan nan nan nan nan nan nan nan nan nan nan nan
nan nan nan nan nan nan nan nan nan nan nan nan nan nan nan nan nan nan nan nan nan nan nan nan nan nan nan nan nan nan nan nan nan nan nan nan nan nan nan nan nan nan nan nan nan nan nan nan nan nan nan nan nan nan nan nan nan nan nan nan nan nan nan nan nan nan nan nan nan nan nan nan nan nan nan nan nan nan nan nan nan nan nan nan nan
nan nan nan nan nan nan nan nan nan nan nan nan nan nan nan nan nan nan nan nan nan nan nan nan nan nan nan nan nan nan nan nan nan 36 38 36 nan nan nan nan nan nan nan nan nan nan nan nan nan nan nan nan nan nan nan nan nan nan nan nan nan nan nan nan nan nan nan nan nan nan nan nan nan nan nan nan nan nan nan nan nan nan nan nan nan
nan nan nan nan nan nan nan nan nan nan nan nan nan nan nan nan nan nan nan nan nan nan nan nan nan nan nan nan nan nan nan nan nan nan nan nan 40 nan 40 nan nan nan nan nan nan nan nan nan nan nan nan nan nan nan nan nan nan nan nan nan nan nan nan nan nan nan nan nan nan nan nan nan nan nan nan nan nan nan nan nan nan nan nan nan nan
Wind_Direction
290 286 286 290 293 299 302 302 308 301 305 305 305 302 295 295 294 290 285 286 284 287 289 289 290 295 301 304 309 309 314 320 322 325 326 320 312 313 315 323 327 321 323 339 353 8 14 16 12 0 354 355 352 350 346 340 339 338 336 332 334 333 332 334 337 337 324 325 nan 324 326 326 327 330 329 329 323 329 334 339 335 335 336 337 334
286 282 281 285 300 300 303 301 302 298 304 305 306 302 299 297 295 291 296 294 291 291 291 289 288 294 298 301 302 305 308 313 320 321 323 320 315 306 312 319 323 322 314 319 338 351 0 6 6 357 351 355 354 353 349 344 339 337 330 327 326 324 323 323 327 325 326 318 320 319 320 323 327 325 330 331 333 331 335 336 338 338 336 334 334
291 280 280 284 294 293 296 299 300 308 311 304 309 307 301 298 294 297 298 294 294 293 292 292 289 290 292 292 296 299 302 309 313 318 319 319 315 311 310 317 322 324 319 318 326 333 348 355 358 350 342 349 352 353 351 349 342 340 335 326 321 319 317 320 318 321 321 318 319 324 328 327 330 327 330 331 331 331 333 335 336 334 333 334 333
292 290 289 293 295 294 296 297 307 311 314 307 311 307 300 296 295 298 300 295 295 294 294 294 292 291 293 292 293 294 299 303 308 313 316 316 313 311 309 312 317 321 319 315 317 321 337 344 347 345 342 344 347 350 352 351 347 343 346 337 330 326 320 323 329 323 321 326 325 331 329 333 331 332 330 331 332 331 333 334 336 336 335 333 332
295 296 298 301 301 300 305 304 308 314 316 309 314 310 307 303 298 303 301 301 300 293 292 292 292 293 292 294 293 293 296 300 304 310 311 310 311 310 309 308 311 316 317 314 311 314 323 333 338 340 339 340 342 349 353 356 353 354 359 358 352 344 335 333 335 336 334 336 338 337 339 337 336 336 336 333 333 333 333 336 336 336 336 335 332
297 296 296 299 300 309 308 309 314 317 317 316 316 313 312 313 311 305 306 306 303 299 295 292 291 295 293 293 292 291 291 294 300 305 309 309 307 308 308 308 309 311 315 316 314 312 314 323 329 334 337 338 338 342 349 356 353 357 1 1 357 348 345 342 340 341 344 345 346 347 345 347 341 342 341 338 335 335 335 336 337 336 333 335 335
292 296 296 299 299 306 309 310 308 310 310 311 307 309 315 318 320 314 308 310 308 306 303 299 292 293 293 292 293 291 291 294 296 302 304 306 306 307 308 309 306 303 311 318 318 316 316 317 323 329 332 332 334 336 341 347 347 350 348 349 347 345 343 343 342 344 345 347 348 351 350 347 348 347 345 341 339 338 336 335 337 335 334 335 335
293 295 296 295 298 306 305 304 301 301 301 300 304 309 313 316 317 313 307 312 313 312 310 303 296 293 292 292 292 291 292 293 297 299 301 303 303 305 306 306 305 302 307 315 319 319 319 319 321 324 326 326 328 329 331 334 333 338 336 336 337 339 340 340 342 342 342 345 346 347 349 347 345 348 345 341 341 341 340 337 337 335 335 335 336
300 303 296 293 294 294 290 289 289 293 297 298 304 306 309 310 309 309 308 309 306 311 309 305 300 296 294 293 292 291 291 292 292 297 300 303 303 305 307 307 304 301 304 313 320 321 321 319 318 318 316 317 324 323 326 323 323 327 326 329 332 334 335 335 337 338 338 341 342 343 345 346 346 344 347 343 343 343 339 338 336 335 334 334 332
304 304 303 295 287 284 284 280 281 286 290 297 298 301 305 306 310 311 311 311 303 299 300 302 306 303 299 299 296 291 291 290 296 306 301 297 303 299 300 303 304 301 303 310 318 324 325 320 314 318 310 313 314 319 319 318 323 322 320 324 328 328 330 331 332 333 335 337 339 340 342 343 342 341 343 343 341 340 340 338 338 336 334 334 329
308 314 312 295 282 281 282 280 278 281 284 287 290 295 299 300 301 302 303 304 304 297 301 310 312 306 307 304 306 299 296 295 306 307 310 310 303 304 303 301 302 303 306 309 313 317 318 318 309 303 303 303 309 315 315 315 317 321 321 325 324 326 326 329 329 330 331 333 334 336 338 339 339 339 340 341 341 340 339 338 338 336 335 333 332
307 308 307 293 289 290 283 278 273 275 277 281 284 288 291 294 296 299 303 308 300 304 310 311 305 309 305 313 317 312 308 308 309 313 316 317 312 305 306 303 302 304 306 308 306 306 309 309 307 299 299 299 299 299 308 314 314 318 318 317 321 327 327 323 324 326 328 328 330 332 333 333 333 334 336 338 338 338 337 336 336 337 335 334 330
294 296 300 298 300 298 290 284 279 276 279 278 274 275 283 291 297 299 307 302 295 302 302 307 313 319 324 329 336 333 327 317 315 319 321 321 321 316 306 308 307 306 306 307 305 302 301 303 304 301 295 303 297 297 296 301 308 316 315 313 317 323 325 328 322 321 321 324 325 327 328 327 330 330 331 332 332 336 333 334 334 335 334 331 328
288 293 295 298 299 296 294 292 289 286 280 275 273 275 281 290 297 295 288 287 290 293 305 302 293 314 342 351 339 348 358 322 328 329 330 331 330 321 313 314 314 312 311 307 302 303 305 304 304 303 300 293 296 300 297 299 298 298 301 301 306 314 320 326 328 325 316 317 320 322 321 323 323 323 324 325 329 331 331 332 332 334 335 333 328
282 290 300 303 300 296 294 292 291 289 286 281 279 281 285 286 291 286 283 282 281 280 284 287 281 288 314 330 308 352 2 319 326 331 332 333 333 325 318 316 312 313 311 309 308 308 309 306 305 304 302 300 298 303 300 299 298 297 300 307 311 313 315 320 319 318 317 318 317 318 318 320 322 321 320 320 325 325 325 329 331 331 330 329 323
282 291 301 307 306 301 294 287 283 284 284 280 279 282 284 285 285 278 271 269 266 265 264 264 267 267 270 281 286 307 290 298 314 323 327 325 323 307 311 314 311 307 307 310 312 310 310 310 306 306 305 305 301 308 304 298 298 299 302 303 304 307 311 315 316 316 317 317 315 314 313 318 318 320 320 321 318 320 322 326 326 325 326 326 328
282 291 300 303 305 306 300 291 285 284 283 280 279 281 281 280 276 270 270 265 265 267 265 266 259 262 273 276 285 273 267 284 302 311 316 319 308 301 305 306 305 307 304 307 310 309 307 307 308 306 309 310 309 310 309 303 298 300 299 301 300 302 305 302 308 312 312 312 312 314 313 304 297 309 314 316 315 318 319 323 326 326 326 328 329
280 286 292 296 299 306 306 301 294 288 283 281 279 275 274 271 272 270 272 272 271 269 267 266 271 276 287 296 298 295 293 291 304 305 312 311 307 299 298 300 304 305 306 307 304 304 306 309 309 309 310 311 310 313 312 305 303 302 301 300 300 301 301 300 295 298 307 307 308 307 303 303 304 306 310 310 311 314 318 322 323 324 326 327 326
278 283 282 282 289 298 304 305 301 293 285 280 275 273 273 272 271 271 272 273 272 269 269 271 275 280 290 298 299 303 303 299 303 308 313 311 306 295 296 298 303 306 305 305 303 301 300 302 309 309 310 309 306 309 312 308 305 304 304 300 300 303 301 299 296 294 293 296 300 301 296 297 299 303 305 309 309 313 315 318 320 321 323 323 323
271 272 273 275 279 288 296 302 302 298 288 277 273 272 270 271 276 277 278 276 276 276 278 277 280 278 282 288 286 296 301 290 294 308 310 312 316 302 298 300 307 309 306 303 302 300 302 302 306 314 312 306 299 304 306 310 303 299 298 299 301 304 298 294 292 289 291 296 299 300 301 300 300 303 301 303 305 311 313 315 317 318 318 319 320
267 267 268 273 277 284 287 293 299 299 291 283 279 278 278 280 281 284 286 283 281 280 281 280 281 280 282 286 289 295 293 294 290 307 310 312 314 310 301 304 305 303 305 303 301 303 303 307 303 308 310 305 300 306 306 307 304 296 296 296 297 293 291 292 293 293 288 292 292 294 296 297 300 303 304 301 304 306 308 311 314 315 315 317 319
261 262 266 271 274 278 283 284 289 290 291 288 286 283 282 284 285 288 287 285 287 285 282 280 282 284 286 290 291 290 290 295 287 300 307 308 308 316 302 303 301 302 304 300 302 304 303 298 298 301 309 309 303 301 304 307 309 299 299 299 294 291 291 288 287 286 287 289 289 289 290 293 298 300 302 299 300 303 305 308 311 313 313 315 316
256 258 262 267 268 271 276 281 281 282 287 292 291 287 282 284 286 286 288 288 288 287 285 284 285 288 288 287 285 286 285 286 293 291 302 305 308 311 312 300 302 300 301 299 299 300 297 296 295 298 305 308 304 302 306 310 305 303 305 299 297 296 292 287 287 287 286 286 286 286 286 289 293 295 295 296 297 299 303 304 306 307 308 311 314
253 256 257 258 261 266 274 278 279 280 286 287 288 285 283 284 286 287 287 287 286 286 285 284 286 288 289 289 286 284 280 280 286 292 295 305 303 307 309 308 299 294 294 294 294 294 292 293 293 297 300 305 307 305 303 302 299 307 303 299 296 293 290 290 289 289 287 285 285 284 283 285 288 288 288 290 295 293 296 299 303 305 306 308 312
252 253 254 255 258 264 270 274 278 280 282 285 284 283 284 283 283 283 283 285 287 289 288 283 281 283 284 284 283 280 280 281 281 289 299 302 305 306 308 307 303 296 291 293 293 293 292 295 296 295 298 301 305 302 298 300 304 299 297 291 290 285 288 289 289 291 290 289 286 284 283 283 284 283 284 288 288 287 290 293 nan 302 nan 306 311
251 253 254 256 260 263 267 271 273 274 275 275 277 278 281 282 281 281 283 286 288 289 285 282 281 283 283 284 284 285 285 282 282 284 290 296 299 305 307 307 309 308 305 299 303 303 300 294 288 289 293 296 295 290 287 291 297 296 295 292 289 290 290 291 291 291 292 289 287 287 286 282 279 278 280 280 282 286 288 292 295 296 nan nan 309
252 253 256 259 261 262 264 264 266 269 270 270 274 277 278 280 280 282 285 286 288 288 287 283 281 282 283 283 283 282 285 286 286 287 287 288 288 293 296 297 303 304 300 298 301 297 299 299 292 288 289 296 299 298 297 296 292 289 287 288 290 294 294 295 293 291 288 286 284 285 284 282 280 280 278 280 281 282 285 288 nan nan nan nan nan
253 253 256 257 259 261 262 264 265 266 268 269 273 276 278 279 279 281 283 285 286 285 284 282 281 283 284 286 287 288 288 288 286 277 273 274 279 287 291 293 294 295 298 299 296 298 297 295 293 287 288 288 290 288 289 286 287 286 286 286 288 290 291 289 286 285 285 282 280 279 278 282 286 284 280 280 281 282 nan nan nan nan nan nan nan
252 254 254 254 256 258 259 259 261 264 266 267 258 254 258 270 275 274 263 263 264 265 267 271 274 272 274 274 275 275 276 277 274 271 275 283 285 281 285 292 294 295 299 304 294 293 293 291 289 288 288 291 294 293 292 289 286 286 285 284 286 288 287 287 287 286 283 280 281 282 283 283 284 283 280 280 282 284 284 287 288 289 nan nan nan
252 251 252 253 255 257 256 258 257 258 268 266 262 259 255 255 257 263 265 262 261 262 265 271 272 272 273 273 273 273 273 269 259 257 261 264 272 286 292 291 292 294 297 300 298 292 294 295 294 292 292 292 296 299 301 298 295 291 287 288 285 283 284 285 285 283 281 280 279 280 281 281 285 285 282 nan nan nan 284 nan nan nan nan nan nan
253 253 254 255 252 252 254 257 254 253 254 259 262 266 264 259 257 261 265 268 270 270 272 275 273 271 273 274 273 277 276 273 272 nan nan nan nan nan nan nan 290 291 291 290 292 295 298 299 300 300 300 300 301 302 301 298 295 290 286 284 283 283 283 283 283 283 283 281 280 281 281 282 284 285 286 286 287 nan nan nan nan nan nan nan nan
252 252 253 254 254 254 254 255 256 254 256 258 259 263 264 265 264 263 268 272 273 274 275 275 276 275 nan nan nan nan nan nan nan nan nan nan nan nan nan nan nan nan nan nan 293 299 303 304 304 305 305 304 305 303 297 291 285 282 279 278 279 280 282 282 282 282 282 281 280 280 280 280 nan nan 286 288 nan nan nan nan nan nan nan nan nan
254 254 255 254 251 252 254 254 256 258 259 260 262 264 266 267 267 269 266 nan nan nan nan nan nan nan nan nan nan nan nan nan nan nan nan nan nan nan nan nan nan nan nan nan nan nan 303 304 305 305 304 304 303 299 290 284 282 282 281 280 278 279 279 279 279 277 276 276 276 nan nan nan nan nan nan nan nan nan nan nan nan nan nan nan nan
253 254 255 254 254 254 255 255 256 256 256 258 259 260 261 263 266 268 272 274 273 270 nan nan nan nan nan nan nan nan nan nan nan nan nan nan nan nan nan nan nan nan nan nan nan nan nan 305 307 309 310 308 304 298 291 289 288 285 281 280 278 276 275 274 274 271 270 273 276 nan nan 275 274 nan 284 nan nan nan nan nan nan nan nan nan nan
249 248 251 253 254 255 255 256 257 258 259 260 261 262 263 263 265 266 265 266 268 270 274 276 278 278 276 nan nan nan nan nan nan nan nan nan nan nan nan nan nan nan nan nan nan nan nan nan 309 310 310 308 304 299 296 294 291 284 278 275 274 273 272 273 272 269 269 273 nan nan 275 nan nan nan nan nan nan nan nan nan nan nan nan nan nan
249 249 249 249 250 251 252 253 255 256 257 258 257 259 261 263 266 267 268 268 269 271 273 273 274 283 286 281 nan nan nan nan nan nan nan nan nan nan nan nan nan nan nan nan nan nan nan nan nan 309 308 306 302 301 300 298 292 285 277 273 271 271 271 271 272 271 270 nan 273 275 278 nan nan nan nan nan nan nan nan nan nan nan nan nan nan
248 247 247 248 249 251 251 253 254 254 255 257 259 262 263 264 264 266 268 270 270 271 272 274 274 278 285 282 nan nan nan nan nan nan nan nan nan nan nan nan nan nan nan nan nan nan nan nan nan nan 306 305 302 300 300 297 287 278 274 272 269 268 267 266 268 269 nan nan nan nan nan nan nan nan nan nan nan nan nan nan nan nan nan nan nan
245 246 246 247 253 254 256 258 260 264 264 265 264 264 266 268 269 269 269 270 271 271 273 273 274 275 274 274 nan nan nan nan nan nan nan 279 277 279 280 nan nan nan nan nan nan nan nan nan nan nan nan nan nan 301 298 289 278 273 275 273 267 265 268 267 268 267 nan nan nan nan nan nan nan nan nan nan nan nan nan nan nan nan nan nan nan
250 246 245 243 247 253 255 258 259 260 262 263 265 266 266 266 266 266 267 269 270 271 272 273 273 273 273 nan nan nan nan 276 276 276 nan nan 278 278 279 279 282 283 284 287 nan nan nan nan nan nan nan nan nan nan nan nan 282 281 284 282 272 267 267 263 nan nan nan nan nan nan nan nan nan nan nan nan nan nan nan nan nan nan nan nan nan
255 255 251 252 254 254 256 256 258 260 260 262 263 263 263 263 264 266 268 269 271 272 273 273 274 274 274 nan nan nan nan 275 275 nan nan 278 nan 278 278 278 279 279 282 285 289 nan nan nan nan nan nan nan nan nan 285 292 288 282 271 261 259 266 272 nan nan nan nan nan nan nan nan nan nan nan nan nan nan nan nan nan nan nan nan nan nan
255 253 253 252 251 255 256 258 257 256 259 258 258 260 262 264 266 267 268 269 270 271 272 272 273 273 nan nan nan nan nan 277 276 nan nan nan nan nan nan 279 nan 279 282 286 289 292 297 nan nan nan nan nan nan nan nan 257 255 nan nan nan nan nan nan nan nan nan nan nan nan nan nan nan nan nan nan nan nan nan nan nan nan nan nan nan nan
253 253 252 253 253 252 253 252 255 256 255 258 260 260 262 265 267 269 271 271 272 273 nan nan nan 275 nan nan nan nan nan 279 nan nan nan nan nan nan nan nan nan nan nan nan nan nan nan nan nan nan nan nan nan nan nan nan nan nan nan nan nan nan nan nan nan nan nan nan nan nan nan nan nan nan nan nan nan nan nan nan nan nan nan nan nan
250 250 250 251 249 248 249 251 252 254 257 258 260 265 267 268 270 272 274 275 274 273 nan nan 277 277 275 nan nan nan nan 277 nan nan nan nan nan nan nan nan nan nan nan nan nan nan nan nan nan nan nan nan nan nan nan nan nan nan nan nan nan nan nan nan nan nan nan nan nan nan nan nan nan nan nan nan nan nan nan nan nan nan nan nan nan
nan nan nan nan 252 253 252 251 253 254 257 261 261 259 260 264 266 269 271 nan nan nan 274 275 274 273 272 274 nan 275 273 276 nan nan nan nan nan nan nan nan nan nan 284 nan nan nan nan nan nan nan nan nan nan nan nan nan nan nan nan nan nan nan nan nan nan nan nan nan nan nan nan nan nan nan nan nan nan nan nan nan nan nan nan nan nan
nan nan nan nan nan nan 256 255 256 259 259 260 260 262 263 264 266 268 271 270 nan nan nan nan nan nan nan nan nan nan nan nan nan nan nan nan nan nan nan nan nan 282 286 286 286 nan 286 nan nan nan nan nan nan nan nan nan nan nan nan nan nan nan nan nan nan nan nan nan nan nan nan nan nan nan nan nan nan nan nan nan nan nan nan nan nan
nan nan nan nan nan nan nan 255 255 257 257 257 259 261 263 264 265 267 268 268 268 nan nan nan nan nan 271 nan nan nan nan nan nan nan nan nan nan nan nan nan nan nan nan 287 288 286 nan 283 nan nan nan nan nan nan nan nan nan nan nan nan nan nan nan nan nan nan nan nan nan nan nan nan nan nan nan nan nan nan nan nan nan nan nan nan nan
nan nan nan nan nan nan nan nan nan nan nan nan nan nan nan nan nan nan nan nan nan nan nan 269 269 nan nan nan nan nan nan nan nan nan nan nan nan nan nan nan nan nan nan nan nan nan nan nan nan nan nan nan nan nan nan nan nan nan nan nan nan nan nan nan nan nan nan nan nan nan nan nan nan nan nan nan nan nan nan nan nan nan nan nan nan
nan nan nan nan nan nan nan nan nan nan nan nan nan nan nan nan nan nan nan nan nan nan nan nan nan nan nan nan nan nan nan nan nan nan nan nan nan nan nan nan nan nan nan nan nan nan nan nan nan nan nan nan nan nan nan nan nan nan nan nan nan nan nan nan nan nan nan nan nan nan nan nan nan nan nan nan nan nan nan nan nan nan nan nan nan
nan nan nan nan nan nan nan nan nan nan nan nan nan nan nan nan nan nan nan nan nan nan nan nan nan nan nan nan nan nan nan nan nan nan nan nan nan nan nan nan nan nan nan nan nan nan nan nan nan nan nan nan nan nan nan nan nan nan nan nan nan nan nan nan nan nan nan nan nan nan nan nan nan nan nan nan nan nan nan nan nan nan nan nan nan
nan nan nan nan nan nan nan nan nan nan nan nan nan nan nan nan nan nan nan nan nan nan nan nan nan nan nan nan nan nan nan nan nan 270 274 276 nan nan nan nan nan nan nan nan nan nan nan nan nan nan nan nan nan nan nan nan nan nan nan nan nan nan nan nan nan nan nan nan nan nan nan nan nan nan nan nan nan nan nan nan nan nan nan nan nan
nan nan nan nan nan nan nan nan nan nan nan nan nan nan nan nan nan nan nan nan nan nan nan nan nan nan nan nan nan nan nan nan nan nan nan nan 271 nan 276 nan nan nan nan nan nan nan nan nan nan nan nan nan nan nan nan nan nan nan nan nan nan nan nan nan nan nan nan nan nan nan nan nan nan nan nan nan nan nan nan nan nan nan nan nan nan